Flag for Monaco Weather past 2 weeks in Monaco, Monaco

Now
81 °F

Sunny.


Feels Like: 83 °F
Forecast: 68 / 89 °F
Wind: 12 mph from East

Location: Nice Airport

Current Time: Jul 28, 2015 at 8:30:41 PM

Latest Report: Jul 28, 2015 at 8:00 PM


Visibility: 10 mi

Pressure: 29.71 "Hg

Humidity: 62%

Dew point: 66 °F

Location of MonacoLocation

Historic Weather in Monaco — Graph

°F

Monaco temperature yesterday

Maximum temperature yesterday: 97 °F (at 2:00 PM)
Minimum temperature yesterday: 72 °F (at 4:00 AM)
Average temperature yesterday: 84 °F

Past Weeks' High & Low Weather Summary

 TemperatureHumidityPressure
High97 °F (Jul 25, 1:30 PM)84% (Jul 19, 10:30 PM)30.09 "Hg (Jul 19, 10:30 PM)
Low72 °F (Jul 27, 4:00 AM)16% (Jul 25, 2:30 PM)29.59 "Hg (Jul 27, 4:30 PM)
Average81 °F63%29.90 "Hg
* Reported Jul 13 7:09 PM — Jul 28 7:11 PM, Monaco, Weather by CustomWeather, © 2015

Note: Actual official high and low records may vary slightly from our data, if they occured in-between our weather recording intervals... More about our weather records

Advertising

Monaco weather history for previous 24 hours

 ConditionsComfort  
Time TempWeatherWind HumidityBarometerVisibility
7:11 PM
Tue, Jul 28
81 °FPassing clouds.12 mph62%29.71 "HgN/A
6:30 PM81 °FPassing clouds.10 mph62%29.71 "HgN/A
6:00 PM81 °FPassing clouds.8 mph58%29.74 "HgN/A
5:30 PM81 °FPassing clouds.7 mph58%29.74 "HgN/A
5:00 PM81 °FPassing clouds.5 mph54%29.74 "HgN/A
4:30 PM81 °FPassing clouds.5 mph62%29.74 "HgN/A
4:00 PM81 °FPassing clouds.7 mph66%29.74 "HgN/A
3:30 PM81 °FPassing clouds.8 mph66%29.74 "HgN/A
3:00 PM82 °FPassing clouds.9 mph62%29.74 "HgN/A
2:30 PM81 °FPassing clouds.8 mph62%29.74 "HgN/A
2:00 PM82 °FPassing clouds.7 mph58%29.77 "HgN/A
1:30 PM81 °FPassing clouds.7 mph62%29.77 "HgN/A
1:00 PM81 °FPassing clouds.8 mph58%29.77 "HgN/A
12:30 PM81 °FPassing clouds.7 mph62%29.77 "HgN/A
12:00 PM81 °FPassing clouds.8 mph62%29.77 "HgN/A
11:30 AM81 °FPassing clouds.7 mph62%29.77 "HgN/A
11:00 AM81 °FPassing clouds.6 mph62%29.77 "HgN/A
10:30 AM81 °FPassing clouds.5 mph62%29.74 "HgN/A
10:00 AM81 °FPassing clouds.2 mph58%29.74 "HgN/A
9:30 AM81 °FPassing clouds.6 mph42%29.74 "HgN/A
9:00 AM79 °FPassing clouds.8 mph34%29.74 "HgN/A
8:30 AM77 °FPassing clouds.9 mph36%29.74 "HgN/A
8:00 AM75 °FPassing clouds.9 mph36%29.74 "HgN/A
7:30 AM73 °FPassing clouds.9 mph38%29.74 "HgN/A
7:00 AM73 °FPassing clouds.9 mph38%29.71 "HgN/A
6:30 AM73 °FPassing clouds.10 mph41%29.71 "HgN/A
6:00 AM73 °FPassing clouds.8 mph41%29.71 "HgN/A
5:30 AM75 °FPassing clouds.9 mph41%29.71 "HgN/A
5:00 AM75 °FPassing clouds.7 mph41%29.71 "HgN/A
4:30 AM75 °FPassing clouds.9 mph44%29.71 "HgN/A
4:00 AM75 °FPassing clouds.7 mph47%29.71 "HgN/A
3:30 AM73 °FPassing clouds.7 mph61%29.71 "HgN/A
3:00 AM75 °FPassing clouds.1 mph83%29.71 "HgN/A
2:30 AM75 °FPassing clouds.No wind83%29.71 "HgN/A
2:00 AM75 °FClear.3 mph83%29.71 "Hg10 mi
1:00 AM77 °FClear.10 mph79%29.71 "Hg10 mi
11:00 PM
Mon, Jul 27
79 °FClear.17 mph70%29.65 "Hg10 mi
10:30 PM84 °FClear.10 mph45%29.65 "Hg10 mi
10:00 PM84 °FClear.8 mph33%29.62 "Hg10 mi
9:30 PM84 °FSunny.17 mph33%29.62 "Hg10 mi
9:00 PM86 °FSunny.23 mph31%29.59 "Hg10 mi
8:30 PM90 °FSunny.28 mph26%29.59 "Hg10 mi
8:00 PM91 °FSunny.25 mph21%29.59 "Hg10 mi
Weather by CustomWeather, © 2015

See weather overviewHow to use our weather pages